Darstellungsparameter: Aktuell verwendete Einstellungen:
Skalierung der Graphiken ... ?
xyx+y,   Skalierungsfaktor:      Skalierung: Modus: x, Faktor: 1
Darstellungszeitraum ... ?
Vom - - bis: - -   Zeitraum: 27.02.2021 - 03.03.2021
Min/Max/Avg-Anzeige ... ?
Zeige MMA aktuell
Zeige MMA Monat
Zeige MMA alles
Zeige --A aktuell
Zeige --A Monat
Zeige --A alles
Keine MMA-Anzeige
MMA:
Average (ber die Originaldaten)
MMA-Basis: 23.02.2003 - 03.08.2020
Quicknavigation für Darstellung... ?
Tage:      1T, 2T, 3T, 5T -1T -2T -3T -5T +1T +2T +3T +5T
Wochen: 1W, 2W, 3W -1W -2W -3W +1W +2W +3W
Monate: 1M, 3M, 6M -1M -3M -6M +1M +3M +6M
Jahre:    1J, 3J, 5J, 10J -1J -3J -5J -10J +1J +3J +5J +10J
Nutze für die Darstellung ... ?
Originaldaten oder ...
Mittelwerte Minima Maxima auf...
Stundenbasis Tagesbasis Wochenbasis
Monatsbasis Jahresbasis      Datenbasis: Mittelwerte auf Stundenbasis
Darstellen als:
Statistik (Auto) Statistik J:M      Darstellung:
Zur Graphik,    zurück zur Übersicht aller Sensoren.
 
Tabellarische Datenbersicht: ?
 
Sensor: Nr:Datum:Temp:Abs-Feuchte:Windchill:Wind:
Aussen-T/F 1 27-02-2021 00:00:00 1.79167 C 5.1 g/m*3 1.79 C 0.13333 km/h
2 27-02-2021 01:00:00 1.38333 C 5.01 g/m*3 1.38 C 0.13333 km/h
3 27-02-2021 02:00:00 0.85833 C 4.83 g/m*3 0.86 C 0.13333 km/h
4 27-02-2021 03:00:00 0.46667 C 4.74 g/m*3 0.47 C 0 km/h
5 27-02-2021 04:00:00 0.04167 C 4.62 g/m*3 0.04 C 0.13333 km/h
6 27-02-2021 05:00:00 -0.175 C 4.55 g/m*3 -0.18 C 0 km/h
7 27-02-2021 06:00:00 -0.40833 C 4.47 g/m*3 -0.41 C 0 km/h
8 27-02-2021 07:00:00 -0.19167 C 4.57 g/m*3 -0.19 C 0.26667 km/h
9 27-02-2021 08:00:00 1.25 C 5.08 g/m*3 1.25 C 0.4 km/h
10 27-02-2021 09:00:00 2.35833 C 5.48 g/m*3 2.36 C 0.53333 km/h
11 27-02-2021 10:00:00 3.1 C 5.75 g/m*3 3.1 C 0.66667 km/h
12 27-02-2021 11:00:00 4.31667 C 6.17 g/m*3 4.32 C 1.73333 km/h
13 27-02-2021 12:00:00 6.15 C 6.54 g/m*3 6.15 C 1.86667 km/h
14 27-02-2021 13:00:00 8.29167 C 6.55 g/m*3 7.02 C 7.90833 km/h
15 27-02-2021 14:00:00 9.35833 C 6.43 g/m*3 8.92 C 5.35833 km/h
16 27-02-2021 15:00:00 9.85833 C 6.34 g/m*3 9.38 C 5.74167 km/h
17 27-02-2021 16:00:00 10.59167 C 6.27 g/m*3 10.01 C 6.58333 km/h
18 27-02-2021 17:00:00 10.86667 C 6.57 g/m*3 10.87 C 2.93333 km/h
19 27-02-2021 18:00:00 7.25 C 6.22 g/m*3 7.25 C 4.4 km/h
20 27-02-2021 19:00:00 5.225 C 5.91 g/m*3 5.23 C 4.93333 km/h
21 27-02-2021 20:00:00 4.625 C 5.9 g/m*3 4.63 C 3.88333 km/h
22 27-02-2021 21:00:00 5.84167 C 6.13 g/m*3 5.84 C 3.475 km/h
23 27-02-2021 22:00:00 5.89167 C 6.03 g/m*3 4.78 C 5.9 km/h
24 27-02-2021 23:00:00 5.8 C 5.94 g/m*3 5.8 C 2.66667 km/h
25 28-02-2021 00:00:00 5.825 C 5.86 g/m*3 5.83 C 2.95833 km/h
Sensor: Nr:Datum:Temp:Abs-Feuchte:Windchill:Wind:
Aussen-T/F 26 28-02-2021 01:00:00 5.825 C 5.76 g/m*3 4.94 C 5.225 km/h
27 28-02-2021 02:00:00 5.68333 C 5.69 g/m*3 5.68 C 3.88333 km/h
28 28-02-2021 03:00:00 5.43333 C 5.48 g/m*3 4.54 C 5.09167 km/h
29 28-02-2021 04:00:00 5.06667 C 5.42 g/m*3 5.07 C 1.33333 km/h
30 28-02-2021 05:00:00 4.75833 C 5.39 g/m*3 4.76 C 2.13333 km/h
31 28-02-2021 06:00:00 3.28333 C 5.08 g/m*3 3.28 C 0.66667 km/h
32 28-02-2021 07:00:00 1.58333 C 4.75 g/m*3 1.58 C 0.26667 km/h
33 28-02-2021 08:00:00 1.09167 C 4.76 g/m*3 1.09 C 0.53333 km/h
34 28-02-2021 09:00:00 1.65833 C 4.99 g/m*3 1.66 C 1.73333 km/h
35 28-02-2021 10:00:00 3.55 C 5.45 g/m*3 3.55 C 3.73333 km/h
36 28-02-2021 11:00:00 6.55833 C 5.63 g/m*3 5.77 C 5.23333 km/h
37 28-02-2021 12:00:00 8.34167 C 5.66 g/m*3 8.34 C 4.54167 km/h
38 28-02-2021 13:00:00 9.875 C 5.78 g/m*3 9.88 C 3.6 km/h
39 28-02-2021 14:00:00 11.30833 C 5.49 g/m*3 11.31 C 10.725 km/h
40 28-02-2021 15:00:00 11.63333 C 5.25 g/m*3 11.63 C 9.54167 km/h
41 28-02-2021 16:00:00 12.35 C 5.26 g/m*3 12.35 C 6.575 km/h
42 28-02-2021 17:00:00 12.00833 C 5.87 g/m*3 12.01 C 2.275 km/h
43 28-02-2021 18:00:00 7.725 C 5.58 g/m*3 6.78 C 6.26667 km/h
44 28-02-2021 19:00:00 5.575 C 5.43 g/m*3 4.38 C 6.01667 km/h
45 28-02-2021 20:00:00 4.425 C 5.37 g/m*3 4.43 C 4.26667 km/h
46 28-02-2021 21:00:00 3.14167 C 5.17 g/m*3 3.14 C 0 km/h
47 28-02-2021 22:00:00 2.275 C 5.03 g/m*3 2.28 C 0 km/h
48 28-02-2021 23:00:00 1.24167 C 4.78 g/m*3 1.24 C 0 km/h
49 01-03-2021 00:00:00 0.76667 C 4.7 g/m*3 0.77 C 0 km/h
50 01-03-2021 01:00:00 0.1 C 4.53 g/m*3 0.1 C 0 km/h
Sensor: Nr:Datum:Temp:Abs-Feuchte:Windchill:Wind:
Aussen-T/F 51 01-03-2021 02:00:00 -0.25833 C 4.46 g/m*3 -0.26 C 0 km/h
52 01-03-2021 03:00:00 -0.55833 C 4.38 g/m*3 -0.56 C 0 km/h
53 01-03-2021 04:00:00 -0.9 C 4.29 g/m*3 -0.9 C 0 km/h
54 01-03-2021 05:00:00 -1.275 C 4.2 g/m*3 -1.27 C 0 km/h
55 01-03-2021 06:00:00 -1.475 C 4.15 g/m*3 -1.48 C 0.13333 km/h
56 01-03-2021 07:00:00 -1.71667 C 4.08 g/m*3 -1.72 C 0 km/h
57 01-03-2021 08:00:00 -1.45 C 4.17 g/m*3 -1.45 C 0 km/h
58 01-03-2021 09:00:00 -0.575 C 4.46 g/m*3 -0.57 C 0 km/h
59 01-03-2021 10:00:00 1.31667 C 5.11 g/m*3 1.32 C 2 km/h
60 01-03-2021 11:00:00 3.9 C 6 g/m*3 2.4 C 6.175 km/h
61 01-03-2021 12:00:00 7 C 6.2 g/m*3 6.15 C 5.6 km/h
62 01-03-2021 13:00:00 9.88333 C 6.3 g/m*3 9.4 C 5.75 km/h
63 01-03-2021 14:00:00 11.93333 C 6.09 g/m*3 11.93 C 4.94167 km/h
64 01-03-2021 15:00:00 12.71667 C 6.12 g/m*3 12.72 C 5.89167 km/h
65 01-03-2021 16:00:00 13.74167 C 6.4 g/m*3 13.74 C 6.71667 km/h
66 01-03-2021 17:00:00 13.53333 C 6.85 g/m*3 13.53 C 4.80833 km/h
67 01-03-2021 18:00:00 9.18333 C 6.52 g/m*3 9.18 C 0 km/h
68 01-03-2021 19:00:00 6.8 C 6.16 g/m*3 6.8 C 3.73333 km/h
69 01-03-2021 20:00:00 5.60833 C 5.93 g/m*3 5.61 C 3.46667 km/h
70 01-03-2021 21:00:00 5.14167 C 5.93 g/m*3 5.14 C 4.26667 km/h
71 01-03-2021 22:00:00 4.50833 C 5.86 g/m*3 4.51 C 3.6 km/h
72 01-03-2021 23:00:00 3.26667 C 5.48 g/m*3 3.27 C 0 km/h
73 02-03-2021 00:00:00 2.14167 C 5.18 g/m*3 2.14 C 0 km/h
74 02-03-2021 01:00:00 1.66667 C 5.08 g/m*3 1.67 C 0 km/h
75 02-03-2021 02:00:00 1 C 4.88 g/m*3 1 C 0 km/h
Sensor: Nr:Datum:Temp:Abs-Feuchte:Windchill:Wind:
Aussen-T/F 76 02-03-2021 03:00:00 0.325 C 4.66 g/m*3 0.33 C 0 km/h
77 02-03-2021 04:00:00 0.025 C 4.61 g/m*3 0.03 C 0 km/h
78 02-03-2021 05:00:00 -0.325 C 4.5 g/m*3 -0.33 C 0 km/h
79 02-03-2021 06:00:00 -0.45833 C 4.46 g/m*3 -0.46 C 0 km/h
80 02-03-2021 07:00:00 -0.58333 C 4.43 g/m*3 -0.58 C 0 km/h
81 02-03-2021 08:00:00 -0.83333 C 4.35 g/m*3 -0.83 C 0 km/h
82 02-03-2021 09:00:00 -0.08333 C 4.62 g/m*3 -0.08 C 0 km/h
83 02-03-2021 10:00:00 1.625 C 5.23 g/m*3 1.63 C 0 km/h
84 02-03-2021 11:00:00 5.225 C 6.69 g/m*3 5.23 C 0 km/h
85 02-03-2021 12:00:00 8.925 C 7.96 g/m*3 8.93 C 0 km/h
86 02-03-2021 13:00:00 13.59167 C 8.19 g/m*3 13.59 C 0 km/h
87 02-03-2021 14:00:00 16.175 C 7.49 g/m*3 16.18 C 1.2 km/h
88 02-03-2021 15:00:00 15.58333 C 7.25 g/m*3 15.58 C 2 km/h
89 02-03-2021 16:00:00 15.725 C 7.56 g/m*3 15.73 C 1.86667 km/h
90 02-03-2021 17:00:00 14.525 C 7.54 g/m*3 14.53 C 5.46667 km/h
91 02-03-2021 18:00:00 10.81667 C 6.91 g/m*3 10.27 C 6.575 km/h
92 02-03-2021 19:00:00 8.775 C 6.67 g/m*3 8.78 C 4.93333 km/h
93 02-03-2021 20:00:00 7.50833 C 6.55 g/m*3 6.86 C 5.2 km/h
94 02-03-2021 21:00:00 6.21667 C 6.24 g/m*3 6.22 C 1.86667 km/h
95 02-03-2021 22:00:00 4.79167 C 5.91 g/m*3 4.79 C 0.53333 km/h
96 02-03-2021 23:00:00 3.46667 C 5.52 g/m*3 3.47 C 0 km/h
97 03-03-2021 00:00:00 2.61667 C 5.32 g/m*3 2.62 C 0.13333 km/h
98 03-03-2021 01:00:00 2.05 C 5.19 g/m*3 2.05 C 0 km/h
99 03-03-2021 02:00:00 1.41667 C 5 g/m*3 1.42 C 0 km/h
100 03-03-2021 03:00:00 1.09167 C 4.91 g/m*3 1.09 C 0 km/h
Sensor: Nr:Datum:Temp:Abs-Feuchte:Windchill:Wind:
Aussen-T/F 101 03-03-2021 04:00:00 1.24167 C 5.01 g/m*3 1.24 C 0 km/h
102 03-03-2021 05:00:00 0.89167 C 4.89 g/m*3 0.89 C 0.53333 km/h
103 03-03-2021 06:00:00 0.83333 C 4.88 g/m*3 0.83 C 0 km/h
104 03-03-2021 07:00:00 0.75833 C 4.86 g/m*3 0.76 C 0 km/h
105 03-03-2021 08:00:00 1.54167 C 5.17 g/m*3 1.54 C 0 km/h
106 03-03-2021 09:00:00 2.4 C 5.47 g/m*3 2.4 C 0.4 km/h
107 03-03-2021 10:00:00 3.43333 C 5.83 g/m*3 3.43 C 0 km/h
108 03-03-2021 11:00:00 6.2 C 6.61 g/m*3 6.2 C 0 km/h
109 03-03-2021 12:00:00 10.13333 C 7.19 g/m*3 10.13 C 0 km/h
110 03-03-2021 13:00:00 13.675 C 7.58 g/m*3 13.68 C 0.8 km/h
111 03-03-2021 14:00:00 15.6 C 7.58 g/m*3 15.6 C 1.075 km/h
112 03-03-2021 15:00:00 16.20833 C 7.58 g/m*3 16.21 C 0 km/h
113 03-03-2021 16:00:00 16.59167 C 7.9 g/m*3 16.59 C 0 km/h
114 03-03-2021 17:00:00 14.38333 C 7.98 g/m*3 14.38 C 0 km/h
115 03-03-2021 18:00:00 11.225 C 7.33 g/m*3 11.23 C 0 km/h
116 03-03-2021 19:00:00 9.75 C 7.11 g/m*3 9.75 C 0 km/h
117 03-03-2021 20:00:00 8.625 C 6.91 g/m*3 8.63 C 0 km/h
118 03-03-2021 21:00:00 7.79167 C 6.8 g/m*3 7.79 C 0 km/h
119 03-03-2021 22:00:00 7.88333 C 6.87 g/m*3 7.88 C 0 km/h
120 03-03-2021 23:00:00 7.79167 C 6.88 g/m*3 7.79 C 0 km/h

Maximal/Minimal-Werte vom 23.02.2003 - 03.08.2020

Sensor Min Max Avg
Temp
(Aussen-T/F)
-16.4 °C
20-12-2009  01:30:01
40.4 °C
25-07-2019  16:20:00
11.23 °C

Die Daten stammen von einer Davis Vantage Pro 2 Wetter-Station und werden unter Linux mit der Software wview2wettercgi und aufbereitet. Alle Angaben erfolgen ohne Gewähr für ihre Vollständigkeit oder Richtigkeit.
Kontakt: Rainer Krienke krienke@uni-koblenz.de . Meine Webseiten an der Uni Koblenz oder privat.
Version: $Revision: 0.78 $